Weather in Pekan Baru

Indonesia     0°31′01″N   101°26′29″E
temp.,
°C
wind,
m/s
gust,
m/s
humid.,
%
clouds,
%
prec.,
mm/h
press.,
hPa
HPBL,
m
12 april, mon
mon1201:00+23ese119885 3.9 101219
04:00+23ssw149899 1.2 1011152
07:00+23ssw1198100 1.6 101369
10:00+27sw127940 0.0 1014512
13:00+33w225143 0.0 10101755
16:00+33w115677 0.0 10081258
19:00+27w117886 0.4 100911
22:00+24ssw1195100 3.9 101211
13 april, tue
tue1301:00+23se119669 4.1 101111
04:00+23ssw119814 0.0 101031
07:00+23sse129751 0.6 101294
10:00+29s237150 1.3 1012684
13:00+33ese225560 2.4 10101623
16:00+29nne137578 2.1 1007483
19:00+25ne2793100 2.4 1009154
22:00+23wnw1198100 3.6 101230
14 april, wed
wed1401:00+23s1199100 8.3 101136
04:00+22sw1110084 3.8 101052
07:00+23wnw0198100 4.1 101261
10:00+29w1174100 0.1 1012594
13:00+34w005137 0.4 10091631
16:00+26nw2491100 5.1 100879
19:00+25n1195100 6.9 100934
22:00+24nnw009586 0.0 101113
15 april, thu
thu1501:00+24w1196100 0.1 101018
04:00+23wnw1197100 0.3 101033
07:00+24nnw129697 0.3 101186
10:00+24wnw0195100 0.0 101390
13:00+27wnw1279100 0.0 1010331
16:00+27sse1181100 0.0 100877
19:00+25ese1190100 0.0 100921
22:00+24ne0096100 0.1 101211
16 april, fri
fri1601:00+22sw009999 3.1 101115
04:00+22se1110096 3.8 101062
07:00+22sw1399100 5.3 1012145
10:00+26s1284100 0.1 1014498
13:00+31sw116271 0.6 10101298
16:00+28sse1281100 1.3 1009155
19:00+24ne2496100 2.0 101196
22:00+24sse1298100 0.1 101244